Flag for U.S.A. Weather past 2 weeks in Buffalo, New York, U.S.A.

Now
72 °F

Partly cloudy.


Feels Like: 73 °F
Forecast: 67 / 76 °F
Wind: 5 mph from South

Location: Greater Buffalo International Airport

Current Time: Aug 20, 2014 at 10:34:33 PM

Latest Report: Aug 20, 2014 at 9:54 PM


Visibility: 10 mi

Pressure: 29.91 "Hg

Humidity: 78%

Dew point: 65 °F

Location of BuffaloLocation

Historic Weather in Buffalo — Graph

°F

Buffalo temperature yesterday

Maximum temperature yesterday: 79 °F (at 4:54 PM)
Minimum temperature yesterday: 57 °F (at 2:54 AM)
Average temperature yesterday: 68 °F

Past Weeks' High & Low Weather Summary

 TemperatureHumidityPressure
High83 °F (Aug 10, 2:54 PM)93% (Aug 6, 1:54 AM)30.18 "Hg (Aug 6, 1:54 AM)
Low55 °F (Aug 8, 4:54 AM)32% (Aug 19, 7:54 PM)29.70 "Hg (Aug 12, 3:54 PM)
Average67 °F67%29.95 "Hg
* Reported Aug 5 8:54 PM — Aug 20 8:54 PM, Buffalo, Weather by CustomWeather, © 2014

Note: Actual official high and low records may vary slightly from our data, if they occured in-between our weather recording intervals... More about our weather records

Advertising

Buffalo weather history for previous 24 hours

 ConditionsComfort  
Time TempWeatherWind HumidityBarometerVisibility
8:54 PM
Aug 20
74 °FBroken clouds.7 mph71%29.89 "Hg10 mi
7:54 PM76 °FPartly sunny.5 mph67%29.90 "Hg10 mi
6:54 PM76 °FBroken clouds.3 mph67%29.90 "Hg10 mi
5:54 PM77 °FBroken clouds.3 mph64%29.90 "Hg10 mi
4:54 PM76 °FCloudy.8 mph67%29.91 "Hg10 mi
3:54 PM77 °FPartly sunny.8 mph64%29.89 "Hg10 mi
2:54 PM76 °FBroken clouds.6 mph64%29.90 "Hg10 mi
1:54 PM76 °FBroken clouds.8 mph64%29.90 "Hg10 mi
12:54 PM75 °FMostly cloudy.12 mph64%29.90 "Hg10 mi
11:54 AM76 °FBroken clouds.7 mph62%29.90 "Hg10 mi
10:54 AM74 °FBroken clouds.12 mph67%29.90 "Hg10 mi
9:54 AM72 °FMostly cloudy.5 mph68%29.90 "Hg10 mi
8:54 AM71 °FPartly sunny.5 mph73%29.89 "Hg10 mi
7:54 AM69 °FPartly sunny.3 mph79%29.88 "Hg10 mi
6:54 AM68 °FPartly cloudy.No wind78%29.86 "Hg10 mi
5:54 AM69 °FPassing clouds.5 mph76%29.84 "Hg10 mi
4:54 AM69 °FOvercast.No wind73%29.83 "Hg10 mi
3:54 AM69 °FMostly cloudy.5 mph70%29.83 "Hg10 mi
2:54 AM69 °FPassing clouds.7 mph68%29.83 "Hg10 mi
1:54 AM67 °FPartly cloudy.7 mph68%29.83 "Hg10 mi
12:54 AM68 °FPartly cloudy.7 mph61%29.84 "Hg10 mi
11:54 PM
Aug 19
67 °FPartly cloudy.10 mph66%29.84 "Hg10 mi
10:54 PM69 °FPartly cloudy.8 mph63%29.85 "Hg10 mi
Weather by CustomWeather, © 2014

See weather overviewHow to use our weather pages